Powrót do katalogu

STARLINK-33718

AktywnyŁącznośćVLEO
NORAD 63476·PAYLOAD·🇺🇸 United States

Wystrzelony Apr 6, 2025 z Cape Canaveral Space Force Station

Loading…

Następne Przeloty (najbliższe 24 godziny)

TLE

ŚwieżeSource: CelesTrak SupGP

Epoka: Sep 14, 2026, 21:25 UTC

1 63476C 25070S   26257.89284722  .00024561  00000+0  88997-3 0  2572
2 63476  43.0001 270.9771 0001381 262.4934 183.1203 15.27552635    12

Śledź STARLINK-33718 w czasie rzeczywistym z AllMySat

Download on the App Store